Showing default

COSMOS 2452, 35499

Orbit data source: Space-Track

COSMOS 2452, 35499 is a payload satellite owned by KVR (CIS) in LEO that was launched on Mon, 06 Jul 2009 UTC via an ROKOT launch vehicle from the Plesetsk Missile And Space Complex (PKMTR). Payload-class satellites include a variety of spacecraft equipped with specific instruments for various scientific and technological missions. These include communications satellites like Starlink; space stations such as the ISS; scientific satellites like the Hubble; Earth observation satellites from companies like Planet Labs, Umbra, and HawkEye 360; GPS; miniature CubeSats for education and research; and military/defense satellites.

Loading next visibility...
Identifier
35499, 2009-036B
Orbit
LEO
Country
Flag of CISCIS
Related business
Manufacturer
Resehetnev ISS
Mission
Non-operational Defense Communications
Bus & Motor
STRELA-3M, Unknown motor
Mass
280 kg wet, 280 kg dry
Launch date (UTC)
2009-07-06 (16 years ago)
Launch vehicle
ROKOT
Launch site
Plesetsk Missile And Space Complex (PKMTR)
Object type
Payload
Rocket body
Debris
Shape & HBR
Cyl + 1 Ant, 3.5 m
Radar Cross Section
1.583 m², Large (>1 m²)

Expand to show TLE details & history
Last TLE update: 1 day ago

TLE from 1 day ago
0 COSMOS 2452
1 35499U 09036B   25260.00594547  .00000047  00000-0  26586-3 0  9998
2 35499  82.4855 249.6985 0016777  19.7048 340.4676 12.42998025734831
Epoch: 2025-09-17T00:08Z
TLE epoch observation values (Epoch: 2025-09-17T00:08:33.688Z)
Latitude
-0.00008°
Longitude
-108.62997°
Altitude
1,484.173 km
Speed
7.127 km/s
True Right ascension
16h 38m 47s
True Declination
0° 00' 00"
Sunlit
Object was in daylight at epoch
Visualization orbit readout
Latitude
Unknown
Longitude
Unknown
Altitude
Unknown
Speed
Unknown
Apparent Right ascension
Unknown
Apparent Declination
Unknown
Sunlit
N/A
Visualization observer readout
Local Sidereal Time
18:59:11
Azimuth
Unknown
Elevation
Unknown
Doppler factor
Unknown
Orbital elements
Apogee altitude
1,504.474 km
Perigee altitude
1,478.069 km
Semi-major axis
7,869.408 km
Eccentricity
0.00168
Inclination
82.4855°
RAAN
249.6985°
Arg. of periapsis
19.7048°
True anomaly
340.4032°
Mean anomaly
340.4676°
Eccentric anomaly
340.43541°
Mean motion
3.10907 °/min
Orbital period
115.79 mins
BSTAR
0.00026586
Loading maneuver chart data...
Computing Atmospheric mass density...
Loading historical data...
Loading historical data...
Loading historical data...
Loading historical data...
Loading historical data...
Loading historical data...
Loading historical data...
Other satellites on launch #36 in the year 2009 (2009-07-06 UTC)

Documentation

Showing up to 5 results
|